This is the latest recevied weather packets stored in our database for station/object WX1N. If no packets are shown the sender has not sent any weather packets the latest 10 day(s).
| Time | Temp. | Humidity | Pressure | Rain* | Wind** | Luminosity | Snow |
|---|---|---|---|---|---|---|---|
| 1777920902 | 20.56° C | 41% | 1004.9 hPa | 0 mm | - | - | - |
| 1777920603 | 20.56° C | 38% | 1004.7 hPa | 0 mm | - | - | - |
| 1777920302 | 20.56° C | 40% | 1004.8 hPa | 0 mm | - | - | - |
| 1777920003 | 20.56° C | 37% | 1004.9 hPa | 0 mm | - | - | - |
| 1777919702 | 21.11° C | 36% | 1004.8 hPa | 0 mm | - | - | - |
| 1777919403 | 21.11° C | 36% | 1004.9 hPa | 0 mm | - | - | - |
| 1777919103 | 21.67° C | 37% | 1004.8 hPa | 0 mm | - | - | - |
| 1777918803 | 21.67° C | 36% | 1004.9 hPa | 0 mm | - | - | - |
| 1777918503 | 21.11° C | 38% | 1004.8 hPa | 0 mm | - | - | - |
| 1777918202 | 20.56° C | 39% | 1005 hPa | 0 mm | - | - | - |
| 1777917903 | 19.44° C | 39% | 1005.1 hPa | 0 mm | - | - | - |
| 1777917603 | 18.89° C | 44% | 1005.2 hPa | 0 mm | - | - | - |
| 1777917302 | 18.89° C | 42% | 1005.2 hPa | 0 mm | - | - | - |
| 1777917003 | 18.33° C | 43% | 1005.2 hPa | 0 mm | - | - | - |
| 1777916703 | 18.33° C | 42% | 1005.1 hPa | 0 mm | - | - | - |
| 1777916403 | 18.33° C | 43% | 1005.3 hPa | 0 mm | - | - | - |
| 1777916103 | 18.33° C | 43% | 1005.3 hPa | 0 mm | - | - | - |
| 1777915803 | 18.33° C | 41% | 1005.3 hPa | 0 mm | - | - | - |
| 1777915503 | 18.89° C | 43% | 1005.3 hPa | 0 mm | - | - | - |
| 1777915202 | 18.89° C | 43% | 1005.3 hPa | 0 mm | - | - | - |
| 1777914903 | 18.89° C | 42% | 1005.3 hPa | 0 mm | - | - | - |
| 1777914603 | 19.44° C | 42% | 1005.3 hPa | 0 mm | - | - | - |
| 1777914303 | 19.44° C | 39% | 1005.2 hPa | 0 mm | - | - | - |
| 1777914003 | 19.44° C | 43% | 1005.4 hPa | 0 mm | - | - | - |
| 1777913703 | 18.89° C | 45% | 1005.4 hPa | 0 mm | - | - | - |
* Rain latest hour (hover to see other rain measurements)
** Current wind speed in m/s (hover to see current wind gust speed)